Weather History for Aitkin, MN

Change the Weather History Date:

Wednesday, February 13, 2013

  Actual Average Record
Temperature  
Mean Temperature 26 °F -  
Max Temperature 37 °F 24 °F 50 °F (2011)
Min Temperature 14 °F 0 °F -27 °F (1965)
Degree Days  
Heating Degree Days 40    
Moisture  
Dew Point 20 °F    
Average Humidity 69    
Maximum Humidity 80    
Minimum Humidity 56    
Precipitation  
Precipitation 0.00 in - - ()
Sea Level Pressure  
Sea Level Pressure 29.62 in    
Wind  
Wind Speed 3 mph (SW)    
Max Wind Speed 9 mph    
Max Gust Speed -    
Visibility 10 miles    
Events Snow    
Averages and records for this station are not official NWS values.
T = Trace of Precipitation, MM = Missing Value Source: NWS Daily Summary

Daily Weather History Graph

Daily Weather History Graph

Search for Another Location

Airport:

Trip Planner

Search our weather history database for the weather conditions in past years. The results will help you decide how hot, cold, wet, or windy it might be!

Date:

Astronomy

Feb. 13, 2013 Rise Set
Actual Time 7:21 AM CST 5:37 PM CST
Civil Twilight 6:49 AM CST 6:08 PM CST
Nautical Twilight 6:14 AM CST 6:44 PM CST
Astronomical Twilight 5:39 AM CST 7:19 PM CST
Moon 8:34 AM CST (2/13) 9:59 PM CST (2/13)
Length of Visible Light 11h 18m
Length of Day
10h 16m
Waxing Crescent, 14% of the Moon is Illuminated
Feb 13
Waxing Crescent
Feb 17
First Quarter
Feb 25
Full
Mar 4
Last Quarter
Mar 11
New

Hourly Weather History & Observations

Time (CST) Temp. Windchill Dew Point Humidity Pressure Visibility Wind Dir Wind Speed Gust Speed Precip Events Conditions
12:13 AM 26.6 °F 20.0 °F 17.6 °F 69% 29.70 in 10.0 mi WSW 5.8 mph - N/A   Overcast
12:32 AM 26.6 °F 20.0 °F 17.6 °F 69% 29.69 in 10.0 mi WSW 5.8 mph - N/A   Overcast
12:53 AM 26.6 °F 21.2 °F 17.6 °F 69% 29.70 in 10.0 mi WSW 4.6 mph - N/A   Overcast
1:13 AM 24.8 °F 19.1 °F 17.6 °F 74% 29.70 in 10.0 mi West 4.6 mph - N/A   Overcast
1:32 AM 24.8 °F 19.1 °F 17.6 °F 74% 29.69 in 10.0 mi WSW 4.6 mph - N/A   Overcast
1:53 AM 24.8 °F 19.1 °F 17.6 °F 74% 29.69 in 10.0 mi SW 4.6 mph - N/A   Overcast
2:13 AM 24.8 °F 19.1 °F 17.6 °F 74% 29.68 in 10.0 mi SW 4.6 mph - N/A   Overcast
2:32 AM 24.8 °F 19.1 °F 17.6 °F 74% 29.68 in 10.0 mi SW 4.6 mph - N/A   Overcast
2:53 AM 24.8 °F - 17.6 °F 74% 29.67 in 10.0 mi Calm Calm - N/A   Overcast
3:12 AM 24.8 °F 20.5 °F 17.6 °F 74% 29.68 in 10.0 mi WSW 3.5 mph - N/A   Overcast
3:33 AM 24.8 °F 19.1 °F 17.6 °F 74% 29.67 in 10.0 mi SW 4.6 mph - N/A   Overcast
3:53 AM 24.8 °F 17.9 °F 17.6 °F 74% 29.67 in 10.0 mi SW 5.8 mph - N/A   Overcast
4:12 AM 24.8 °F 17.9 °F 17.6 °F 74% 29.67 in 10.0 mi WSW 5.8 mph - N/A   Overcast
4:33 AM 24.8 °F 20.5 °F 17.6 °F 74% 29.66 in 10.0 mi SW 3.5 mph - N/A   Overcast
4:53 AM 24.8 °F 19.1 °F 17.6 °F 74% 29.66 in 10.0 mi WSW 4.6 mph - N/A   Overcast
5:12 AM 24.8 °F 20.5 °F 17.6 °F 74% 29.66 in 10.0 mi SW 3.5 mph - N/A   Overcast
5:33 AM 24.8 °F 20.5 °F 17.6 °F 74% 29.65 in 10.0 mi SW 3.5 mph - N/A   Overcast
5:53 AM 24.8 °F 20.5 °F 17.6 °F 74% 29.65 in 10.0 mi WSW 3.5 mph - N/A   Scattered Clouds
6:12 AM 23.0 °F - 17.6 °F 80% 29.64 in 10.0 mi Calm Calm - N/A   Scattered Clouds
6:33 AM 21.2 °F 16.4 °F 15.8 °F 80% 29.64 in 10.0 mi WSW 3.5 mph - N/A   Scattered Clouds
6:53 AM 19.4 °F 14.3 °F 14.0 °F 80% 29.63 in 10.0 mi SSW 3.5 mph - N/A   Clear
7:12 AM 19.4 °F - 14.0 °F 80% 29.64 in 7.0 mi Calm Calm - N/A   Clear
7:33 AM 15.8 °F - 8.6 °F 73% 29.64 in 1.8 mi Calm Calm - N/A   Haze
7:53 AM 14.0 °F 8.2 °F 8.6 °F 79% 29.64 in 3.0 mi SW 3.5 mph - N/A   Haze
8:12 AM 17.6 °F - 10.4 °F 73% 29.64 in 2.5 mi Calm Calm - N/A   Haze
8:33 AM 21.2 °F 16.4 °F 15.8 °F 80% 29.63 in 7.0 mi SW 3.5 mph - N/A   Clear
8:53 AM 23.0 °F 18.4 °F 17.6 °F 80% 29.62 in 10.0 mi SW 3.5 mph - N/A   Clear
9:12 AM 24.8 °F 17.9 °F 17.6 °F 74% 29.62 in 10.0 mi SW 5.8 mph - N/A   Clear
9:32 AM 26.6 °F - 19.4 °F 74% 29.62 in 10.0 mi Calm Calm - N/A   Clear
9:53 AM 28.4 °F 23.3 °F 19.4 °F 69% 29.62 in 10.0 mi West 4.6 mph - N/A   Clear
10:12 AM 30.2 °F 24.3 °F 19.4 °F 64% 29.62 in 10.0 mi West 5.8 mph - N/A   Clear
10:32 AM 30.2 °F - 19.4 °F 64% 29.62 in 10.0 mi Calm Calm - N/A   Clear
11:12 AM 30.2 °F - 19.4 °F 64% 29.62 in 10.0 mi Calm Calm - N/A   Clear
11:32 AM 30.2 °F - 19.4 °F 64% 29.62 in 10.0 mi Calm Calm - N/A   Clear
11:53 AM 32.0 °F - 21.2 °F 64% 29.61 in 10.0 mi Calm Calm - N/A   Clear
12:12 PM 33.8 °F - 21.2 °F 60% 29.60 in 10.0 mi Calm Calm - N/A   Clear
12:53 PM 33.8 °F - 21.2 °F 60% 29.58 in 10.0 mi Calm Calm - N/A   Clear
1:12 PM 35.6 °F - 21.2 °F 56% 29.58 in 10.0 mi Calm Calm - N/A   Clear
1:32 PM 35.6 °F 32.8 °F 21.2 °F 56% 29.58 in 10.0 mi SW 3.5 mph - N/A   Clear
1:53 PM 35.6 °F 32.8 °F 21.2 °F 56% 29.58 in 10.0 mi SW 3.5 mph - N/A   Clear
2:12 PM 35.6 °F 30.7 °F 21.2 °F 56% 29.57 in 10.0 mi SW 5.8 mph - N/A   Clear
2:32 PM 35.6 °F - 23.0 °F 60% 29.56 in 10.0 mi Calm Calm - N/A   Clear
2:53 PM 37.4 °F 34.9 °F 23.0 °F 56% 29.56 in 10.0 mi SW 3.5 mph - N/A   Clear
3:12 PM 37.4 °F 34.9 °F 23.0 °F 56% 29.57 in 10.0 mi SW 3.5 mph - N/A   Clear
3:32 PM 37.4 °F - 23.0 °F 56% 29.57 in 10.0 mi Calm Calm - N/A   Clear
3:53 PM 37.4 °F - 23.0 °F 56% 29.57 in 10.0 mi Calm Calm - N/A   Clear
4:12 PM 35.6 °F - 23.0 °F 60% 29.57 in 10.0 mi Calm Calm - N/A   Clear
4:32 PM 35.6 °F 32.8 °F 24.8 °F 65% 29.57 in 10.0 mi SSE 3.5 mph - N/A   Clear
4:52 PM 35.6 °F 32.8 °F 23.0 °F 60% 29.57 in 10.0 mi SSE 3.5 mph - N/A   Clear
5:12 PM 33.8 °F 30.8 °F 24.8 °F 70% 29.57 in 10.0 mi SSE 3.5 mph - N/A   Clear
5:33 PM 33.8 °F 30.8 °F 24.8 °F 70% 29.57 in 10.0 mi SSE 3.5 mph - N/A   Clear
5:52 PM 33.8 °F 30.8 °F 23.0 °F 65% 29.57 in 10.0 mi South 3.5 mph - N/A   Clear
6:13 PM 33.8 °F - 23.0 °F 65% 29.57 in 10.0 mi Calm Calm - N/A   Clear
6:33 PM 32.0 °F - 23.0 °F 69% 29.58 in 10.0 mi Calm Calm - N/A   Clear
6:52 PM 32.0 °F - 23.0 °F 69% 29.58 in 10.0 mi Calm Calm - N/A   Clear
7:13 PM 32.0 °F 28.7 °F 23.0 °F 69% 29.58 in 10.0 mi SSE 3.5 mph - N/A   Clear
7:33 PM 32.0 °F - 23.0 °F 69% 29.58 in 10.0 mi Calm Calm - N/A   Clear
7:52 PM 32.0 °F 24.8 °F 24.8 °F 75% 29.59 in 10.0 mi NNE 8.1 mph - N/A   Mostly Cloudy
8:13 PM 32.0 °F 24.2 °F 23.0 °F 69% 29.59 in 10.0 mi NE 9.2 mph - N/A   Overcast
8:32 PM 32.0 °F 26.4 °F 21.2 °F 64% 29.60 in 10.0 mi ENE 5.8 mph - N/A   Overcast
8:53 PM 32.0 °F 28.7 °F 21.2 °F 64% 29.60 in 10.0 mi NE 3.5 mph - N/A   Overcast
9:13 PM 30.2 °F - 21.2 °F 69% 29.61 in 10.0 mi Calm Calm - N/A Snow Light Snow
9:32 PM 30.2 °F 26.7 °F 21.2 °F 69% 29.61 in 10.0 mi North 3.5 mph - N/A   Overcast
9:53 PM 30.2 °F 25.4 °F 21.2 °F 69% 29.61 in 10.0 mi NNE 4.6 mph - N/A   Overcast
10:13 PM 30.2 °F 26.7 °F 21.2 °F 69% 29.62 in 10.0 mi NNE 3.5 mph - N/A   Overcast
10:32 PM 30.2 °F - 21.2 °F 69% 29.62 in 10.0 mi Calm Calm - N/A   Overcast
10:53 PM 30.2 °F - 21.2 °F 69% 29.62 in 10.0 mi Calm Calm - N/A   Overcast
11:12 PM 30.2 °F - 19.4 °F 64% 29.63 in 10.0 mi Calm Calm - N/A   Overcast
11:32 PM 30.2 °F - 19.4 °F 64% 29.63 in 10.0 mi Calm Calm - N/A   Overcast
11:53 PM 28.4 °F 24.6 °F 19.4 °F 69% 29.63 in 10.0 mi NNW 3.5 mph - N/A   Overcast